Theta_e
339 339 338 336 336 335 335 334 334 333 333 333 334 334 335 335 334 334 333 333 332 332 332 332 332 333 334 335 335 336 335 335 335 336 336 335 333 331 331 332 330 329 328 324 320 319 322 324 323 318 318 318 319 320 318 317 320 319 318 319 321 321 321 322 322 322 321 320 320 320 320 321 321 321 320 320 320 320 320 320 320 320 321 321 322
339 338 337 336 336 335 335 335 334 333 333 334 335 335 335 335 335 335 334 334 333 333 333 333 332 333 334 335 335 335 336 336 336 336 336 336 334 331 331 331 330 329 327 324 320 320 323 325 323 321 322 323 323 323 321 319 319 318 318 319 318 318 321 321 321 321 319 320 321 320 321 321 320 320 320 320 320 320 320 320 320 320 320 320 321
338 338 337 336 336 336 335 335 335 334 335 334 335 335 335 335 336 335 335 335 334 333 334 334 333 333 333 335 336 336 336 336 336 335 335 335 334 332 331 331 329 328 328 326 324 324 326 325 324 325 326 326 325 324 323 321 318 315 314 314 314 318 320 319 320 321 319 320 321 320 320 320 320 320 320 320 319 319 319 319 319 319 319 320 320
337 337 337 336 336 336 335 335 335 335 335 335 335 335 335 335 335 335 335 334 334 333 333 334 335 334 334 335 336 336 336 336 335 335 335 335 334 332 331 331 330 328 328 328 328 328 327 326 327 328 328 327 325 324 323 323 320 315 312 311 310 313 316 316 318 319 320 321 319 318 318 319 320 320 319 319 318 317 318 319 318 318 318 319 319
336 336 336 336 336 335 336 335 335 334 334 334 334 334 334 335 334 334 334 334 334 333 333 334 334 335 335 335 335 335 335 335 335 335 335 334 334 332 331 331 330 329 329 328 328 329 329 328 329 329 328 328 327 325 324 323 321 317 313 313 313 312 312 313 314 314 317 317 315 315 316 316 317 318 318 319 318 317 317 318 318 318 318 318 318
335 335 335 336 336 336 336 335 335 334 333 333 334 334 334 334 334 334 333 333 333 333 334 334 333 334 334 334 334 335 335 335 335 335 334 333 332 332 331 331 331 330 330 329 328 328 329 328 328 328 328 329 328 328 327 323 321 319 316 315 316 314 312 312 311 310 311 312 312 312 312 312 311 313 315 317 318 318 316 316 318 319 318 318 318
336 334 335 336 336 336 336 335 335 334 334 333 333 334 334 334 334 334 333 333 333 333 334 334 333 333 333 334 334 334 335 335 335 334 333 331 330 331 331 330 330 331 331 329 328 328 328 327 326 327 327 328 329 329 328 324 321 321 320 318 317 315 312 312 312 311 311 311 311 310 308 308 307 308 311 312 315 316 315 314 316 317 318 318 318
336 335 335 336 336 336 336 335 334 334 334 333 333 333 333 333 333 334 333 333 333 333 333 334 333 333 333 334 334 334 334 334 334 333 331 330 330 331 331 331 331 331 330 330 329 328 327 326 326 326 326 327 328 328 328 326 324 323 323 322 321 319 316 315 314 314 315 313 312 309 307 308 309 309 309 309 309 310 312 313 314 315 317 318 318
336 335 336 337 337 336 336 335 334 334 334 333 333 333 333 333 332 333 333 333 333 333 333 333 333 332 333 334 334 334 334 334 333 332 330 330 331 332 332 332 331 331 331 330 329 328 326 326 326 325 325 326 326 327 328 328 328 327 326 324 323 322 321 320 320 320 320 319 317 315 311 310 311 310 311 311 309 308 309 311 311 312 314 315 316
336 336 337 337 337 336 336 334 334 334 334 333 333 333 333 332 332 332 332 332 332 332 332 333 332 332 333 333 334 334 334 333 333 330 329 330 331 331 331 331 330 331 331 329 329 329 328 327 327 326 326 325 326 326 327 328 328 328 328 327 326 325 325 324 324 324 324 323 322 321 318 315 313 312 315 316 314 311 310 311 309 308 311 313 314
336 336 336 336 336 336 335 334 334 334 333 333 333 333 332 332 331 331 331 331 331 331 332 332 332 332 333 333 333 333 333 333 332 330 330 331 330 330 331 330 331 331 331 330 330 329 329 329 329 328 327 326 326 326 326 327 327 328 328 328 328 327 328 327 326 325 325 324 324 323 322 321 319 318 318 318 318 316 314 314 311 306 307 309 311
336 335 335 334 334 335 335 334 334 334 334 333 333 332 332 331 331 330 331 331 330 331 331 332 332 333 332 333 333 332 332 332 332 331 331 331 331 331 331 331 331 331 330 330 330 330 330 330 329 329 328 327 326 325 326 326 326 328 328 328 329 328 328 328 328 327 326 326 325 324 324 324 323 323 322 321 321 320 318 318 315 309 305 305 306
335 334 333 333 333 334 334 333 334 334 334 333 333 332 332 331 331 331 330 330 330 330 331 332 332 333 332 332 332 331 332 331 331 331 331 331 331 331 331 331 331 331 330 330 330 330 330 329 329 329 329 328 327 326 326 326 326 326 327 328 329 329 328 328 329 328 328 328 327 326 325 325 325 324 324 324 324 322 320 320 319 316 311 305 304
334 333 333 333 333 333 333 333 334 334 334 333 333 332 332 331 331 331 330 330 331 331 332 332 332 332 332 331 331 330 331 331 331 331 331 331 331 331 330 330 331 330 330 330 329 329 329 329 329 329 329 329 329 328 327 328 327 326 327 327 328 329 328 328 329 329 328 328 328 327 326 326 326 326 325 326 326 325 323 322 322 321 317 311 309
333 333 333 333 333 333 334 334 334 334 333 333 333 333 333 332 331 331 330 331 331 331 332 332 331 331 331 331 331 330 330 331 330 330 330 330 330 330 330 330 330 330 330 329 329 329 329 329 328 329 329 329 329 329 328 328 327 326 326 326 327 328 328 328 329 328 328 328 328 328 327 327 326 327 327 326 327 326 326 325 323 323 322 319 318
332 333 333 333 333 333 334 334 335 334 333 333 333 333 333 333 332 331 331 331 331 331 332 332 332 331 331 331 331 331 331 330 330 330 330 330 330 329 329 329 330 330 329 329 329 328 328 328 328 328 328 329 329 329 328 328 327 326 325 326 327 328 328 328 328 328 328 328 328 327 327 326 326 327 326 326 326 326 326 325 324 323 324 324 324
332 332 332 332 332 333 333 333 334 334 334 334 333 333 333 332 333 332 332 331 330 330 331 331 332 332 330 331 330 330 331 330 330 329 328 330 329 329 329 329 330 329 329 329 328 328 328 327 327 327 327 328 328 328 328 328 328 327 326 326 326 327 328 328 328 328 327 327 326 326 326 326 326 325 325 325 325 325 325 325 324 324 325 325 325
332 332 332 332 332 332 332 332 333 332 333 334 333 333 333 332 332 332 332 332 331 331 331 331 332 332 331 332 331 330 331 330 331 329 328 329 328 328 329 329 329 328 328 328 327 327 326 326 326 326 326 326 327 327 327 327 327 327 326 326 326 327 328 327 327 326 326 326 325 324 324 324 324 324 325 325 325 325 325 325 325 325 325 325 325
332 331 331 331 331 331 331 332 332 332 333 334 334 333 333 332 332 332 332 332 332 331 331 331 332 331 331 332 332 331 330 330 331 330 330 329 327 328 328 327 327 327 326 326 326 326 325 325 325 325 326 326 326 326 326 325 325 326 326 326 326 326 326 326 326 326 325 323 321 321 322 323 324 324 323 323 324 325 325 325 325 325 325 324 325
331 331 331 331 331 330 331 331 331 331 332 333 334 333 333 332 332 332 332 332 332 331 331 331 331 331 331 331 331 331 331 330 330 330 330 329 327 328 327 326 325 325 325 325 324 325 325 325 325 325 325 325 325 325 325 324 324 325 326 326 326 325 324 323 321 319 317 314 313 315 317 318 319 318 317 317 319 321 322 322 322 323 323 322 321
331 331 330 330 330 330 330 331 331 330 330 331 332 333 333 333 333 332 332 332 331 332 331 331 330 331 331 330 330 331 330 331 330 330 329 329 328 328 327 325 325 324 324 324 323 323 323 324 324 325 324 324 324 324 324 323 322 324 325 323 322 321 319 315 312 309 308 308 308 309 309 310 311 311 310 310 311 313 313 314 314 316 316 315 314
330 330 330 329 330 330 330 330 331 331 330 330 331 333 333 333 333 333 333 332 331 332 332 330 329 331 331 329 330 330 330 330 331 330 330 329 328 328 328 327 325 324 323 323 323 323 323 323 323 324 323 323 322 322 321 320 318 319 318 315 313 312 310 308 306 305 305 305 305 305 304 304 305 305 305 305 306 306 306 307 307 308 308 307 307
329 330 330 330 329 330 329 329 330 330 330 329 330 332 333 333 333 333 332 331 331 332 332 331 329 330 331 329 329 330 329 329 330 329 329 330 329 328 328 327 325 324 323 323 323 322 322 322 323 322 321 320 319 317 315 313 310 310 309 307 306 306 305 304 304 304 303 303 303 303 303 303 302 302 302 302 302 302 302 302 302 302 302 302 302
328 329 330 330 329 329 328 328 328 328 328 328 329 330 332 333 333 332 332 331 331 332 332 332 330 329 330 330 329 330 330 329 328 328 329 329 328 328 327 326 325 324 322 322 321 321 321 321 321 319 317 316 315 312 310 307 305 304 304 304 303 303 303 304 304 304 303 303 303 303 302 302 302 302 302 302 302 302 302 302 301 301 300 300 300
328 329 329 330 329 328 327 327 327 327 327 327 327 328 330 330 332 332 331 331 331 331 331 332 331 330 330 330 330 329 329 329 328 328 328 328 328 328 326 325 324 323 321 321 319 319 319 319 318 316 315 314 312 310 308 305 303 303 303 303 303 303 304 304 303 303 302 302 302 301 301 301 301 301 301 301 301 302 302 302 302 302 301 301 301
327 328 329 329 328 328 327 327 327 327 327 328 328 328 329 328 329 331 331 331 332 331 331 331 331 331 331 330 330 330 329 329 329 328 328 328 328 327 326 325 323 322 321 319 319 318 317 316 316 315 313 312 311 309 307 305 304 303 304 303 303 303 303 303 302 302 301 302 302 302 302 302 301 301 301 300 300 300 301 301 301 301 301 300 300
327 328 329 328 328 328 327 327 327 327 327 328 328 328 329 327 327 330 331 331 332 331 331 331 331 331 331 330 330 329 330 330 329 328 327 327 327 326 325 323 322 321 320 319 319 318 317 315 314 313 312 311 311 310 307 306 304 303 303 303 303 303 303 302 302 302 303 304 305 304 304 303 303 302 301 301 300 300 301 301 301 301 300 300 300
327 328 328 328 328 328 327 325 325 326 327 327 326 327 327 327 326 329 329 329 330 331 330 331 331 331 331 331 330 330 330 330 329 328 328 327 326 325 323 321 321 321 320 320 319 318 317 315 314 312 310 311 311 309 307 306 305 305 305 304 304 304 303 303 303 304 306 307 307 306 306 305 304 303 303 302 301 300 300 301 301 301 301 301 301
327 328 328 327 327 327 326 324 323 325 326 325 325 325 326 326 326 326 326 326 327 327 328 330 330 330 331 331 331 330 330 330 329 329 328 327 325 323 322 320 320 320 319 319 319 318 316 315 314 311 310 311 310 309 307 306 306 307 308 307 305 304 304 304 305 306 307 308 308 308 307 307 306 305 304 302 301 301 300 301 301 302 302 302 302
326 327 328 327 327 326 325 323 322 323 325 325 324 324 324 325 324 324 324 324 324 325 326 328 329 330 331 331 331 330 330 331 330 329 329 327 323 321 320 319 318 318 318 318 317 317 316 315 313 311 310 310 310 310 309 307 307 309 309 308 306 305 305 305 306 307 308 308 308 308 308 307 307 306 305 304 302 301 300 300 301 302 302 302 302
326 326 327 327 326 326 324 323 322 322 324 325 324 323 323 323 322 321 322 322 322 323 325 326 329 330 330 331 331 330 330 331 330 329 328 326 321 319 320 319 318 318 317 317 316 316 316 314 312 310 309 310 310 311 310 307 307 308 310 308 306 305 306 306 307 307 308 308 308 308 308 308 307 307 306 304 302 301 301 300 301 302 302 302 302
326 326 326 326 326 325 324 322 321 320 322 324 323 322 322 321 320 320 320 321 320 321 322 324 327 329 329 330 330 330 330 329 328 328 327 324 321 319 319 319 319 318 317 317 317 316 316 314 312 310 309 309 310 311 310 308 307 308 310 308 306 306 306 306 306 307 307 307 308 308 308 308 308 307 306 304 303 301 301 300 301 302 302 302 302
326 326 326 325 325 325 323 322 320 319 321 323 322 321 321 321 320 319 319 319 319 319 320 322 324 326 326 326 327 329 329 327 326 325 324 323 321 319 319 319 319 319 318 317 317 317 317 316 312 310 309 309 310 310 310 309 307 308 309 308 306 306 307 307 306 306 307 307 307 308 308 308 307 307 306 304 302 301 300 301 301 301 302 302 302
325 325 325 324 324 324 323 321 318 318 320 322 322 320 320 320 319 319 318 318 319 319 319 321 323 325 324 324 325 327 327 325 323 322 321 321 320 319 319 319 319 319 319 318 318 318 318 317 313 310 310 310 310 310 311 310 309 309 310 309 308 308 309 308 307 307 306 307 307 307 307 307 307 307 306 304 302 301 300 301 301 302 302 302 302
324 324 323 323 323 323 321 320 318 317 319 321 322 320 319 319 318 318 317 317 318 319 319 319 320 323 323 323 324 325 325 324 322 320 320 320 319 319 319 319 319 319 319 319 319 318 318 316 314 312 311 310 310 311 310 311 311 310 310 310 310 310 310 310 310 308 307 306 306 307 307 307 307 307 306 304 302 301 300 300 301 302 302 302 302
323 323 322 321 322 322 320 319 317 316 317 320 321 320 319 318 317 317 317 317 318 319 318 319 319 320 321 322 323 324 324 323 322 320 320 320 319 319 319 319 319 320 320 320 319 319 319 317 315 313 312 311 311 311 311 311 312 311 311 311 311 310 310 310 310 309 307 306 306 306 306 306 307 307 306 305 303 301 300 300 300 301 302 302 302
322 322 321 320 321 321 319 318 317 317 316 317 319 320 319 319 318 317 317 317 318 318 318 318 318 319 320 320 320 321 321 321 320 319 319 319 318 318 318 318 318 319 320 321 320 319 319 319 317 314 313 312 312 312 312 311 312 312 312 312 312 312 310 310 310 308 307 306 306 306 306 306 306 307 306 305 303 301 300 299 300 301 301 301 301
321 320 320 319 319 319 318 317 317 316 316 316 317 318 319 319 318 318 318 318 318 317 317 317 318 319 319 319 319 320 320 319 319 319 318 318 318 317 318 318 317 318 319 319 320 319 319 319 318 316 315 314 313 313 313 312 313 313 312 312 313 312 311 311 310 308 306 306 305 305 306 305 306 306 305 304 302 301 299 299 299 300 300 300 301
320 319 319 319 318 318 318 317 316 316 317 317 317 318 318 318 318 318 319 318 318 318 317 317 318 318 318 318 318 318 319 319 319 319 319 319 318 318 318 318 317 318 318 318 318 319 319 319 318 317 316 315 314 314 314 312 312 313 312 312 313 312 312 312 311 308 307 306 306 306 305 305 306 306 305 304 302 301 299 299 299 299 300 300 300
319 318 318 318 319 319 318 317 317 317 317 317 318 318 318 318 318 319 318 318 318 318 318 318 318 319 318 319 318 318 319 319 319 320 320 319 319 319 318 318 318 318 318 318 318 318 318 318 318 317 317 316 315 315 314 313 312 313 313 313 313 313 313 312 312 310 308 308 307 306 305 305 305 305 304 303 302 301 299 299 299 299 299 298 298
320 319 318 317 317 318 319 319 318 317 318 318 318 318 318 318 318 318 319 318 318 317 318 318 318 318 319 319 320 320 319 319 318 319 319 318 319 320 319 319 319 318 318 318 317 317 317 317 317 318 317 317 316 315 315 314 313 313 313 313 313 313 313 313 312 311 309 309 308 307 305 305 305 305 304 304 303 301 300 300 300 299 298 297 297
320 320 320 319 318 318 319 319 319 320 320 319 317 317 318 318 319 319 318 318 318 317 317 318 318 318 319 319 320 318 317 317 317 318 318 317 318 318 318 318 319 318 318 318 318 317 317 317 317 317 317 317 316 316 315 315 314 313 313 313 313 313 313 313 313 311 310 309 309 309 307 307 307 307 306 306 304 303 302 303 302 300 298 297 296
318 318 318 319 319 318 319 319 321 322 320 316 315 315 316 316 318 320 319 318 318 318 318 318 319 319 319 319 319 318 317 317 318 318 318 318 318 318 318 318 318 318 318 318 318 318 317 317 317 317 317 317 316 316 315 315 315 314 313 313 314 314 314 314 313 311 310 309 309 310 309 308 307 308 308 307 305 304 304 304 302 300 298 297 296
317 316 316 317 317 317 319 321 321 319 316 314 314 315 315 314 316 318 320 320 319 319 319 319 320 320 320 321 321 321 320 319 319 320 319 319 319 319 319 319 319 319 318 318 318 318 318 318 318 318 318 317 317 316 316 315 315 315 315 314 314 315 315 314 312 312 310 309 309 310 310 308 307 307 307 306 305 304 303 302 300 299 298 297 296
316 317 317 317 317 318 319 319 318 317 316 315 316 315 315 316 315 316 319 321 321 320 320 321 320 320 321 322 323 324 323 321 320 321 322 321 320 319 319 319 319 319 319 319 319 319 318 318 319 319 318 318 317 317 317 316 316 315 315 315 315 314 314 313 313 312 311 309 309 310 310 308 306 306 306 306 305 304 303 302 300 298 297 296 295
316 316 317 318 318 319 319 317 316 317 317 317 317 316 316 317 316 316 318 321 322 321 321 322 322 322 323 323 323 323 324 323 322 322 323 323 322 321 320 320 320 320 320 320 319 319 319 318 319 319 319 319 319 319 318 318 317 317 316 316 315 314 314 314 313 312 310 308 308 309 310 309 307 305 305 305 305 304 303 302 301 299 298 296 295
317 317 318 318 318 318 317 317 317 317 316 317 318 318 318 318 317 318 319 321 322 322 323 323 323 323 323 323 323 322 323 324 324 323 323 323 324 323 323 322 322 321 321 320 320 319 319 318 318 319 319 320 320 320 319 319 319 318 317 316 316 315 314 313 311 309 307 306 307 308 308 308 306 304 304 305 305 304 303 302 301 300 299 296 294
315 315 316 315 316 317 317 316 316 314 313 314 315 317 318 319 319 320 321 322 323 324 325 324 324 324 323 324 324 323 323 324 324 322 321 321 323 324 324 323 323 322 322 322 320 320 319 319 319 319 319 319 319 319 319 318 318 317 316 316 315 314 313 313 310 308 306 304 305 306 306 306 305 304 304 304 304 303 302 302 301 300 299 296 294
309 310 310 310 310 312 313 311 310 309 309 310 311 313 315 316 318 319 320 322 324 324 324 325 324 324 324 323 322 322 323 323 323 322 320 319 320 322 323 323 323 323 323 322 321 319 319 318 318 318 318 318 318 318 318 317 317 316 315 315 315 314 313 313 311 309 306 304 303 304 304 304 305 304 302 302 302 301 301 300 300 300 299 297 295
306 305 306 307 307 308 308 307 307 307 306 306 307 309 310 311 313 314 316 319 321 322 322 323 322 322 322 321 318 319 321 322 322 321 320 319 320 322 323 323 323 322 322 321 320 319 318 318 318 318 318 318 317 317 317 317 316 315 314 315 315 313 312 312 311 309 306 304 303 303 302 303 304 303 301 301 300 300 300 300 299 299 299 298 297
305 305 306 306 305 306 307 306 306 307 307 306 306 306 306 307 307 309 312 315 316 317 317 317 318 319 320 320 318 318 319 320 321 321 320 320 320 321 321 321 321 320 320 319 319 319 318 318 318 317 317 316 316 316 315 315 315 313 312 313 314 312 311 311 310 309 307 305 303 302 301 302 302 301 301 300 300 300 301 300 299 299 299 298 298
Wind_Speed
10 9 9 9 9 8 7 6 6 6 6 6 6 6 6 5 5 5 5 5 5 5 5 5 6 6 6 6 6 6 6 5 6 7 7 8 10 11 11 8 8 10 8 9 10 11 12 11 9 10 10 10 10 9 8 7 7 7 7 8 8 8 8 8 8 8 8 9 9 9 11 12 12 12 12 12 12 12 12 12 10 9 9 11 11
10 9 9 9 9 9 9 8 7 6 6 5 5 4 4 4 4 4 5 4 5 4 4 5 5 5 5 6 6 6 5 5 6 6 6 7 9 11 11 8 9 10 9 10 12 12 12 11 10 11 11 10 10 9 9 8 7 6 7 7 7 7 7 7 7 7 7 9 10 9 10 10 11 11 11 12 12 11 12 12 12 11 10 11 11
10 9 9 10 9 9 9 9 8 7 7 6 5 4 4 4 3 4 4 4 4 4 4 4 4 5 5 5 5 5 5 5 6 6 6 7 8 10 10 8 9 10 9 9 11 11 10 10 10 11 10 9 9 8 8 8 8 7 6 6 6 6 6 6 6 6 7 9 9 9 9 9 10 10 10 10 10 10 11 10 10 11 12 11 11
10 10 9 9 9 9 8 8 8 7 7 6 6 5 4 4 4 3 3 3 4 4 4 4 4 4 4 4 4 5 5 6 6 7 7 7 8 9 10 10 10 10 9 9 9 9 9 9 8 8 8 8 8 8 9 8 8 7 6 6 7 7 6 5 6 6 7 7 7 8 8 8 9 9 9 9 8 9 11 12 11 11 12 12 11
10 10 9 8 8 8 7 7 7 7 6 6 6 5 5 4 4 4 3 4 4 4 4 4 4 3 3 4 4 4 4 5 6 7 8 8 7 8 9 9 9 9 9 9 8 8 7 8 7 6 7 7 6 7 9 9 8 7 7 7 7 7 6 5 6 6 7 7 7 7 7 8 8 8 9 9 9 9 11 12 12 12 12 12 11
10 11 9 8 8 7 7 6 6 6 6 6 6 5 5 5 5 5 4 4 4 4 4 4 4 4 3 3 3 3 4 5 6 6 6 6 6 7 8 8 8 8 8 7 7 6 6 6 6 6 6 6 6 6 8 8 8 8 9 8 7 7 6 7 7 7 7 7 7 8 8 8 7 8 8 9 9 9 10 11 11 11 11 11 11
11 11 10 8 7 7 7 6 6 6 6 6 5 5 5 5 5 5 5 4 4 4 3 4 4 4 3 3 3 3 4 4 5 5 3 5 8 8 9 10 9 9 10 9 8 5 5 6 8 7 6 7 7 7 7 8 9 10 11 10 9 8 7 7 7 7 7 7 7 8 7 8 9 9 8 8 9 8 8 9 10 10 10 11 10
11 11 10 8 8 7 7 7 7 7 6 6 5 5 5 5 4 4 5 5 5 4 4 4 4 4 4 3 4 4 4 4 4 5 4 6 9 7 7 8 8 9 10 11 10 8 6 7 8 7 7 8 7 6 7 7 7 9 10 11 10 9 9 9 8 8 8 8 8 7 7 8 8 8 8 8 8 8 8 8 8 9 9 9 10
10 10 10 8 8 8 8 8 7 7 6 6 6 6 6 6 5 4 4 5 5 5 5 5 5 5 4 4 4 4 4 4 4 5 5 8 9 7 6 5 6 7 6 7 9 9 8 7 6 6 7 8 7 6 6 6 5 5 6 7 9 9 10 9 9 9 10 9 9 8 8 8 8 8 8 8 8 8 8 8 8 8 7 8 8
10 10 9 8 8 8 8 8 7 7 7 7 6 6 6 6 6 4 4 5 6 6 6 5 5 5 5 4 5 4 5 4 5 6 5 6 7 6 5 5 5 4 4 6 7 8 9 7 5 6 7 7 7 8 7 6 5 4 3 3 4 6 7 7 6 8 9 9 9 9 9 9 9 8 7 6 7 8 8 7 7 7 7 7 7
10 9 9 9 9 8 8 9 8 8 7 7 6 6 6 6 7 5 4 4 5 6 6 6 6 6 6 6 5 5 5 4 5 6 4 3 4 3 4 5 4 4 4 4 4 6 8 6 5 7 6 6 5 7 7 6 5 4 3 2 2 1 2 2 2 4 6 6 7 9 9 9 9 9 8 6 6 7 8 7 6 7 7 6 6
10 10 9 9 9 8 9 9 9 8 8 7 6 6 6 7 7 7 7 6 6 6 7 8 8 7 7 7 7 6 6 5 5 5 4 3 3 3 4 5 4 4 4 4 3 4 6 5 5 7 7 5 4 5 5 4 3 3 2 1 1 2 2 2 3 2 3 4 5 6 6 7 8 9 9 9 8 6 6 8 7 6 6 6 6
10 10 10 9 9 8 9 9 8 8 7 7 6 6 7 8 8 8 8 8 7 7 7 8 8 8 7 7 8 7 7 6 5 5 5 4 3 4 5 5 4 3 3 3 3 3 4 5 5 6 6 5 4 4 4 3 2 3 3 1 0 1 2 3 4 4 2 2 2 3 4 4 5 7 8 8 8 8 7 8 8 6 6 6 6
11 10 10 9 9 8 9 9 8 7 7 7 7 7 8 8 8 8 8 8 7 8 8 6 6 7 7 7 8 8 7 6 5 5 5 4 3 4 5 5 3 2 2 2 2 3 4 5 6 6 6 5 5 4 4 4 3 3 4 2 1 1 0 2 3 4 3 3 3 2 2 2 2 3 4 3 3 5 7 7 8 8 7 7 8
10 10 10 9 9 9 9 9 8 7 7 8 8 7 7 8 8 8 8 7 7 8 7 5 4 6 6 5 5 5 5 6 5 5 5 5 4 4 5 5 3 1 2 2 3 4 4 4 5 5 5 4 4 4 4 4 4 4 4 3 3 2 2 1 2 3 3 4 3 3 3 2 1 1 1 1 0 2 4 4 5 8 9 9 9
10 10 10 9 9 9 10 10 9 8 7 8 8 7 7 7 7 7 7 8 7 8 7 4 4 5 4 2 3 3 3 5 5 5 6 6 5 5 7 7 4 1 2 3 3 3 3 3 3 3 3 3 4 4 3 3 4 4 4 4 5 4 4 4 4 4 4 4 3 2 3 3 2 1 1 1 1 1 0 1 3 5 6 7 7
10 10 9 9 9 9 10 10 10 9 8 8 8 8 7 7 7 7 7 7 7 8 7 5 4 4 3 1 2 1 1 5 6 5 6 5 6 8 9 8 6 5 5 4 3 3 2 2 2 2 2 3 4 5 4 4 4 5 5 6 6 7 7 6 7 8 8 8 7 7 7 5 3 3 3 2 1 1 2 2 1 3 4 4 4
9 9 9 9 9 9 9 9 9 9 8 7 7 8 8 8 7 7 7 6 6 7 7 6 5 3 1 1 1 3 1 6 5 4 5 5 8 10 10 10 9 7 6 5 3 3 3 3 4 4 4 4 5 5 5 5 6 5 6 7 8 10 11 10 12 13 13 13 12 11 11 10 9 9 9 9 7 7 6 5 4 5 4 4 4
9 8 8 8 9 9 8 8 8 8 8 8 8 8 8 8 8 7 7 7 6 6 6 6 6 4 2 1 0 2 2 5 3 3 5 5 9 11 10 10 9 8 7 6 5 5 5 5 6 6 6 6 6 8 8 9 9 9 9 10 11 13 14 14 15 15 13 12 12 12 12 12 11 11 10 9 10 11 11 10 9 9 9 8 8
9 9 8 8 8 8 8 8 7 8 8 8 8 8 7 7 7 6 6 7 6 5 5 6 6 6 5 4 1 0 2 3 3 2 4 5 7 8 9 9 9 9 7 7 7 7 7 7 7 7 8 8 8 10 11 11 11 11 11 12 13 13 13 13 13 13 12 12 13 13 13 12 11 10 10 10 10 10 10 9 9 9 8 8 9
8 8 8 8 7 8 8 7 7 7 7 7 7 7 7 7 7 6 6 6 6 4 4 7 7 6 7 7 4 3 3 2 2 2 2 5 6 5 7 8 9 8 7 7 8 7 8 8 7 8 9 9 10 10 11 11 11 11 11 10 11 11 10 11 11 12 12 13 13 13 13 12 11 11 10 10 11 10 10 9 8 8 7 7 8
8 7 7 7 7 7 7 8 8 7 7 7 7 7 7 7 7 6 6 6 6 5 4 6 7 5 5 7 6 5 5 4 3 2 2 5 6 6 7 7 8 8 7 8 8 8 8 8 7 8 9 9 10 10 10 10 11 11 10 9 9 9 9 10 11 11 12 12 13 12 12 12 11 10 10 9 9 9 9 8 8 7 7 7 7
9 7 7 7 7 7 7 7 8 7 7 6 7 7 7 7 7 6 6 6 5 5 4 4 4 5 5 5 5 4 4 4 5 4 2 4 6 6 7 8 9 9 8 8 8 8 8 8 8 9 9 9 9 10 10 11 12 11 10 9 9 9 10 11 11 12 13 13 13 13 12 12 11 10 10 9 9 8 8 7 7 7 6 6 6
9 8 7 8 8 8 7 6 6 6 7 6 6 6 6 7 7 6 7 6 5 5 4 4 4 6 5 3 2 2 2 2 5 5 3 4 6 6 8 8 9 10 10 9 8 8 8 8 9 9 9 10 10 10 10 12 12 12 11 11 11 11 11 12 13 13 14 14 14 14 13 12 12 11 10 9 9 8 8 8 8 8 7 7 7
10 9 9 10 9 8 7 6 5 6 6 6 5 5 6 7 7 7 7 7 6 5 5 5 5 5 5 4 3 4 3 2 4 5 4 5 6 7 8 8 9 10 11 10 10 9 8 8 9 9 10 10 9 10 10 11 12 13 12 12 12 12 12 13 13 14 14 14 15 14 14 13 13 12 11 10 9 9 8 8 8 8 8 8 7
11 10 10 11 10 9 8 6 6 6 6 6 5 5 5 5 7 8 8 7 6 5 5 5 6 5 6 6 6 6 4 4 5 6 6 7 7 9 9 9 9 11 11 10 10 10 9 9 9 9 9 9 10 10 10 11 13 13 13 13 13 13 13 13 13 14 14 15 15 15 15 15 15 14 14 13 11 10 9 9 8 8 8 8 8
11 11 11 11 10 9 8 7 7 6 7 6 6 5 5 5 7 7 7 7 7 6 6 6 6 6 6 7 7 6 5 5 6 6 7 7 8 9 9 8 7 8 9 9 9 9 10 10 9 9 9 10 10 10 11 12 14 14 14 14 13 13 13 13 13 13 14 15 16 17 17 17 16 16 15 14 13 11 10 9 8 8 8 8 8
11 11 11 11 10 10 8 8 8 7 7 7 6 6 6 7 7 8 8 8 7 7 6 6 7 7 8 7 7 6 5 5 6 7 7 7 8 9 8 7 7 6 6 7 8 9 10 9 9 8 9 10 10 11 12 13 14 14 13 13 13 12 12 12 13 14 14 15 16 16 17 17 17 16 16 15 13 11 10 8 7 6 6 6 6
11 10 11 11 11 10 9 8 8 8 8 7 7 7 7 8 9 9 9 8 8 7 6 6 6 7 8 7 6 6 5 5 6 7 6 6 8 8 7 7 7 6 5 5 6 8 9 8 8 9 9 10 11 12 12 12 13 12 10 10 11 11 11 12 13 13 13 13 14 14 15 15 15 15 15 14 12 11 9 7 6 5 5 5 5
11 11 11 11 11 10 9 9 9 9 8 8 8 8 8 9 9 9 9 8 7 7 6 7 6 6 7 7 6 6 6 6 7 7 7 7 8 7 6 5 5 5 5 5 5 7 8 7 7 10 11 11 11 11 10 11 13 11 8 9 10 11 11 11 11 10 10 11 11 12 12 13 13 13 13 12 11 10 8 7 5 4 4 4 4
12 12 12 12 11 10 9 9 9 9 9 9 9 9 9 10 10 9 9 8 8 7 7 7 7 7 7 7 7 7 7 7 8 8 8 8 8 8 7 6 5 5 5 6 6 6 7 7 7 9 12 12 11 11 10 11 13 12 9 9 10 11 10 9 8 8 7 7 8 8 9 9 10 10 10 10 10 9 7 6 5 4 4 4 5
12 12 12 12 11 10 9 9 9 9 10 10 10 10 10 10 10 10 9 8 8 8 7 8 9 9 9 8 8 8 8 9 9 9 9 9 8 7 7 6 6 5 4 6 7 7 6 7 7 9 12 13 12 11 11 11 13 12 9 9 11 11 8 7 7 6 5 4 5 5 6 6 7 8 8 8 8 8 6 5 4 4 4 4 5
12 12 12 12 12 11 10 9 8 9 10 11 10 11 11 10 9 9 8 8 9 8 7 8 9 10 10 10 10 10 9 10 10 9 10 9 7 6 6 5 5 4 2 4 8 9 7 7 8 10 12 13 12 12 12 12 13 12 9 9 11 10 8 8 7 7 5 4 2 2 2 4 5 6 7 7 7 7 6 4 3 3 3 3 3
12 12 11 11 11 11 10 9 8 9 10 11 11 11 11 10 9 8 7 8 9 8 8 8 9 10 10 11 11 11 10 10 10 9 9 9 7 6 5 3 4 4 2 2 5 9 9 9 10 11 13 14 12 13 14 13 13 13 10 11 11 10 9 8 8 8 8 6 4 2 1 2 4 5 7 7 7 7 5 4 3 3 3 3 3
12 12 11 11 11 11 11 9 8 9 11 11 11 11 11 10 9 7 6 7 8 8 8 9 10 10 11 11 11 10 10 10 8 7 7 6 5 4 3 2 2 3 3 3 4 7 10 11 12 12 13 14 13 13 14 14 14 14 12 12 12 11 10 9 8 9 10 9 7 5 3 3 4 5 6 7 7 7 6 4 3 3 3 3 3
12 11 10 11 12 12 11 10 9 9 11 11 11 10 10 9 8 8 8 8 8 8 8 9 9 10 10 11 10 10 10 9 7 6 5 5 3 2 2 3 3 3 3 4 6 6 8 10 11 12 13 14 13 13 14 14 14 14 13 12 12 11 11 10 9 10 12 11 9 8 6 5 5 6 6 7 7 7 6 5 4 4 4 4 5
11 10 10 11 11 11 11 10 10 10 10 11 11 10 10 9 8 8 9 9 9 8 8 8 8 8 9 9 9 9 8 7 6 5 5 4 3 2 2 3 3 2 2 4 6 7 8 9 10 10 11 13 12 12 13 14 14 14 14 13 13 12 12 10 10 12 14 12 11 11 9 8 8 7 7 7 6 6 5 4 4 5 5 6 6
11 10 10 11 11 11 10 9 9 10 10 11 10 10 10 9 9 9 9 9 9 8 8 7 7 7 7 8 8 7 7 6 6 5 5 4 3 2 2 2 2 2 2 3 5 7 8 8 9 9 10 11 12 12 13 14 14 14 14 14 14 13 13 12 11 12 13 13 13 14 11 10 10 8 7 7 6 6 5 5 5 5 6 7 7
11 10 10 10 10 10 9 8 8 9 9 10 10 10 10 9 9 9 8 8 8 8 7 7 6 6 6 6 6 6 5 5 5 5 4 4 3 3 2 2 2 1 2 3 4 6 8 8 9 10 10 11 12 12 12 14 14 14 15 15 14 14 14 14 13 12 12 13 15 16 13 11 11 10 8 8 7 7 6 6 6 7 8 8 9
10 10 10 10 9 9 9 8 8 8 9 10 9 9 10 9 9 8 7 8 8 8 7 6 6 5 5 5 5 5 4 4 5 5 4 4 3 3 3 2 2 3 4 4 5 6 7 8 9 9 10 11 12 13 13 14 16 16 16 16 15 15 15 15 16 15 14 14 15 15 15 15 13 11 9 8 8 8 7 8 9 9 9 9 10
8 8 8 9 9 9 9 8 8 8 8 8 9 9 9 9 8 7 6 6 6 6 6 5 5 4 4 4 4 4 5 5 5 5 4 4 4 3 2 2 3 3 4 5 6 6 7 8 8 9 10 11 12 13 14 15 17 17 16 16 16 16 15 15 16 16 15 14 14 14 14 14 12 9 7 7 7 7 8 8 9 10 10 10 12
7 6 6 6 7 8 9 9 8 8 7 8 9 10 9 8 7 6 6 6 5 5 5 5 5 4 4 4 4 5 5 5 4 4 4 4 3 3 4 4 4 4 5 5 6 6 7 7 8 9 10 11 12 13 14 16 17 16 16 17 17 16 15 15 15 15 16 15 14 14 13 12 12 10 8 8 9 8 6 6 8 11 12 12 14
8 7 6 6 6 7 7 8 8 7 7 8 9 9 8 8 6 4 5 5 5 5 5 6 5 5 6 6 6 6 6 6 6 5 4 4 4 4 4 5 6 6 7 7 7 7 8 8 9 9 10 11 12 13 14 15 15 16 16 17 17 16 15 15 15 15 18 18 15 13 12 11 11 10 9 9 9 7 7 11 14 15 15 15 15
9 8 7 6 6 7 7 8 7 6 6 7 7 8 8 8 7 5 4 5 6 6 6 7 6 6 6 7 7 6 7 7 7 6 6 7 6 7 7 7 8 9 9 10 11 10 10 10 10 11 11 11 12 12 13 14 14 15 16 16 17 17 17 18 17 15 17 20 16 12 12 11 9 10 9 9 9 8 10 15 16 16 16 16 16
6 8 8 7 7 8 8 8 7 5 4 4 5 7 7 8 8 7 6 5 6 7 7 7 7 7 7 8 8 7 8 9 9 8 8 9 9 10 11 11 12 12 13 13 14 14 13 12 12 12 12 11 12 12 12 13 13 14 16 16 17 18 18 19 17 13 14 18 17 13 13 11 9 9 10 10 10 10 11 15 16 15 16 17 15
7 7 8 8 8 9 8 8 7 4 2 2 3 6 6 7 8 8 7 7 8 8 8 8 8 8 8 8 8 9 9 9 9 9 9 9 10 12 13 13 14 15 16 17 17 17 17 17 16 15 14 13 13 13 12 13 14 15 16 16 16 17 17 15 14 13 13 16 17 14 10 9 9 8 10 11 10 9 11 15 17 16 18 17 14
11 10 10 9 10 10 9 8 6 4 2 1 1 3 4 5 6 5 5 6 7 7 7 8 8 9 9 9 10 11 10 10 10 11 10 10 10 11 12 13 14 15 16 18 18 18 18 18 17 16 16 15 15 15 14 12 13 14 15 17 16 15 15 14 12 11 12 16 19 15 8 6 8 8 9 9 9 9 10 14 17 18 18 16 13
15 15 14 13 13 12 11 8 7 6 5 3 2 1 2 3 3 2 3 4 4 5 5 6 6 7 7 7 8 8 9 9 10 12 12 11 11 12 13 14 15 15 16 17 19 19 18 18 19 19 19 20 20 21 20 17 15 13 13 15 15 14 15 14 11 10 10 14 18 15 9 5 6 7 8 9 8 9 9 11 15 17 17 16 14
17 18 18 17 16 16 15 12 10 9 7 6 4 3 1 0 1 1 1 3 3 4 4 5 5 6 7 8 9 10 10 10 10 12 13 12 12 12 14 15 16 15 16 17 19 20 19 19 21 21 22 23 23 24 24 23 21 17 13 14 14 14 15 16 12 9 8 10 13 12 9 6 6 6 8 9 9 11 12 11 13 16 17 16 13
16 17 17 16 15 14 13 12 10 8 7 6 5 3 2 1 0 1 1 2 2 3 3 4 5 6 8 11 13 12 12 11 12 13 14 12 12 13 14 15 16 16 16 16 16 18 19 19 20 22 22 23 23 24 24 23 22 19 17 16 15 13 14 14 11 9 7 9 12 12 9 8 7 7 7 8 10 13 13 10 10 13 15 13 12
14 14 13 13 12 10 9 8 7 5 4 3 2 1 1 1 0 1 1 2 2 2 3 3 5 6 7 9 10 11 11 12 14 14 13 13 13 14 15 15 16 17 17 14 14 15 16 16 18 19 19 20 20 21 21 21 20 19 17 15 13 13 14 14 12 9 6 7 12 13 10 8 8 8 7 7 8 9 9 9 8 10 11 10 11
Wind_Direction
158 158 155 152 151 152 150 149 150 150 149 148 148 145 143 143 143 144 146 148 154 167 177 184 192 195 187 178 177 172 163 156 145 140 135 142 148 142 136 123 110 107 99 104 110 109 110 114 112 101 98 95 91 87 83 86 87 88 96 100 98 98 98 93 90 88 84 83 77 79 81 78 77 72 73 78 75 70 65 64 65 63 63 61 59
160 159 157 155 156 156 155 156 158 160 159 156 157 153 147 146 149 150 150 151 153 160 171 177 182 181 184 182 179 179 172 164 152 148 146 147 151 145 137 127 110 103 99 104 106 107 114 118 111 101 97 95 92 85 79 79 83 87 93 97 101 103 102 97 93 88 88 89 84 82 82 81 81 76 74 75 75 73 70 68 65 65 69 66 64
163 161 159 158 160 161 159 161 163 168 169 167 165 157 153 147 141 143 147 153 151 156 167 168 171 170 175 176 174 180 175 170 166 165 164 159 157 147 142 138 117 101 97 103 107 110 115 117 109 100 97 97 93 86 77 77 77 78 86 93 97 101 102 100 95 88 85 87 89 87 84 83 83 80 76 74 74 74 71 67 65 68 69 66 65
165 163 162 162 164 165 164 166 167 170 172 170 170 163 157 148 135 137 143 151 151 154 157 154 159 159 166 166 168 174 172 174 176 176 174 168 163 152 153 150 126 105 95 100 114 119 115 115 117 111 105 101 93 84 77 74 73 73 80 87 90 93 94 93 91 90 89 86 85 84 85 84 81 80 78 74 73 73 72 65 63 69 70 66 65
167 167 165 166 167 166 166 170 169 170 171 170 174 171 170 164 152 152 153 159 157 155 152 149 150 146 149 150 151 159 164 175 183 187 180 170 161 139 145 158 143 124 104 97 110 118 118 123 124 114 112 115 102 86 75 70 71 73 79 86 85 82 82 85 87 89 89 86 80 77 79 81 80 80 78 74 70 70 76 73 67 68 70 68 67
172 173 170 169 168 165 165 169 169 168 169 171 176 176 178 175 167 166 163 163 155 148 147 145 145 142 131 125 131 141 156 174 187 193 179 159 155 135 139 160 157 144 128 112 109 112 123 125 114 97 102 122 118 98 81 70 72 74 74 80 80 75 78 82 83 83 84 82 77 73 71 71 72 74 75 76 73 68 74 78 74 69 68 69 69
176 176 174 171 169 169 168 167 167 163 168 177 173 169 173 171 171 169 161 158 147 137 130 125 126 124 112 111 129 142 155 177 178 167 152 145 148 147 155 162 163 164 162 150 134 125 123 108 99 87 88 111 119 112 98 81 78 79 76 76 77 80 83 86 86 85 86 83 79 74 71 69 68 70 71 75 79 75 71 73 76 75 72 69 65
179 180 177 175 175 174 171 168 164 160 167 173 163 163 168 163 171 175 164 156 143 133 125 121 117 113 115 122 130 139 150 173 160 130 141 155 145 144 153 159 168 174 169 156 143 143 135 109 100 90 83 96 106 112 117 106 85 79 78 79 82 85 88 90 92 92 89 86 85 81 80 81 75 72 71 72 75 73 69 68 73 79 78 73 69
184 186 180 179 180 174 167 163 161 159 163 166 162 167 170 163 165 172 169 155 142 136 131 127 123 120 122 124 127 134 143 152 135 118 144 161 158 159 153 159 174 172 165 152 148 150 138 118 109 99 88 89 90 94 114 123 105 89 87 86 90 90 90 90 90 94 92 86 83 81 83 88 84 78 76 75 74 70 70 69 68 75 76 74 79
188 190 184 183 178 169 162 158 159 160 161 164 163 166 171 167 157 152 164 161 149 144 139 130 126 124 124 125 125 125 127 132 133 140 156 159 165 172 163 166 166 162 169 154 148 143 131 126 123 112 97 86 82 82 92 102 96 98 100 96 102 93 87 90 87 91 96 92 85 82 81 84 86 85 83 85 81 68 68 70 63 64 69 73 82
190 191 188 185 176 164 160 159 159 159 162 164 161 165 170 164 152 148 156 155 147 145 139 130 124 121 120 117 115 114 117 128 135 141 146 145 153 154 156 162 146 147 160 141 131 120 118 126 115 105 98 83 78 81 85 84 77 83 80 78 121 116 94 113 113 96 97 98 91 85 84 84 87 86 83 85 88 74 66 68 62 59 65 71 77
190 192 190 187 179 166 161 161 161 161 163 162 161 169 171 162 155 153 149 142 144 145 139 133 126 118 114 105 104 108 112 121 124 123 122 129 140 133 139 145 143 158 150 120 116 111 116 124 103 94 92 82 77 82 81 70 64 66 54 57 171 230 225 206 202 166 118 115 103 90 84 84 84 81 76 70 70 76 66 61 59 58 66 70 72
188 188 187 185 180 171 166 166 164 163 162 160 163 170 170 161 152 153 154 150 148 146 142 140 136 128 123 115 112 112 113 119 118 118 126 138 153 151 141 134 140 157 135 116 128 125 118 111 98 89 86 81 73 75 74 51 33 29 31 41 245 254 238 235 229 214 187 170 147 106 81 76 76 75 77 70 60 62 60 59 56 50 62 72 70
182 180 181 181 179 174 171 169 164 162 158 156 161 168 171 161 153 158 159 153 148 150 152 155 160 152 145 141 129 118 116 120 118 118 123 128 150 154 134 120 131 147 135 131 112 82 71 73 82 84 78 71 63 60 57 47 37 31 30 43 70 39 305 247 226 209 187 168 178 174 142 99 81 65 70 71 52 50 46 52 53 48 58 74 76
176 174 177 180 181 177 172 167 163 168 163 155 159 169 172 163 161 164 158 152 150 158 169 188 188 164 164 168 147 136 135 130 123 117 111 108 123 146 143 131 133 151 122 115 98 78 72 70 81 91 80 66 68 70 59 45 45 43 38 72 94 74 59 70 151 174 159 140 157 189 187 175 185 256 24 24 330 55 33 30 48 55 61 72 79
174 174 176 178 180 177 173 169 168 176 168 158 165 172 170 164 167 171 165 161 160 165 177 204 195 177 198 203 158 178 169 143 145 122 103 105 100 102 124 134 131 118 89 94 113 100 98 93 80 89 78 67 81 88 80 61 57 58 70 95 100 92 88 88 103 125 133 130 140 151 156 176 213 248 253 278 282 257 279 27 55 57 53 56 64
175 175 176 174 176 176 174 171 172 177 170 164 170 172 171 170 172 178 178 174 170 171 176 188 193 206 271 344 139 231 152 149 163 116 92 102 100 93 103 114 112 106 100 98 107 92 83 84 66 65 70 83 100 96 89 82 71 67 79 92 96 95 94 94 96 103 107 103 97 94 103 116 110 94 92 86 55 264 220 200 76 36 22 12 13
175 174 172 170 172 172 171 172 173 175 170 168 171 172 174 174 176 182 187 191 184 175 171 170 179 200 316 70 179 274 141 159 176 111 101 104 99 97 96 103 102 95 92 87 83 82 82 77 69 72 75 81 93 94 96 96 92 92 91 92 97 99 97 96 98 99 98 95 92 93 98 99 96 98 97 92 88 87 100 113 85 57 54 44 33
173 171 169 167 169 169 170 171 172 174 171 169 172 175 177 175 177 183 186 192 192 182 168 164 175 184 194 142 216 309 136 167 189 133 137 113 96 96 92 94 91 83 79 77 77 82 86 85 82 86 87 84 91 97 97 93 89 92 97 100 105 107 105 103 103 102 100 101 101 98 99 100 99 101 100 96 94 93 95 97 89 81 80 78 69
173 170 168 165 166 167 168 168 171 175 174 175 176 174 173 171 174 179 181 184 187 187 169 171 185 180 185 203 194 127 152 188 231 174 141 128 116 108 96 87 80 78 79 80 84 85 85 88 89 90 88 85 89 94 94 89 85 91 101 109 114 114 112 110 110 110 108 105 101 97 97 100 101 97 92 90 93 96 98 99 94 86 80 74 69
169 169 168 165 162 161 163 166 170 174 174 175 172 165 163 165 170 173 175 177 180 189 176 182 201 189 182 198 191 176 177 179 222 230 140 137 139 127 116 104 86 81 80 85 91 92 92 95 96 95 91 89 88 88 91 91 93 103 110 113 118 118 114 112 110 109 108 103 99 97 96 96 94 91 87 84 86 88 89 89 89 85 75 69 69
164 166 165 162 160 160 164 168 168 170 171 170 165 157 154 156 164 168 169 171 173 186 195 193 205 205 189 194 190 182 180 167 174 197 152 136 136 140 143 132 110 97 92 96 101 101 100 103 106 102 99 98 96 92 96 103 108 114 115 111 113 113 109 107 103 100 98 95 93 91 90 89 87 85 84 82 82 81 81 80 80 80 73 66 64
163 163 163 162 162 163 165 167 164 166 166 167 166 158 150 150 154 159 164 171 169 178 205 206 199 204 199 202 205 189 179 172 164 168 165 139 136 139 136 131 124 118 116 118 116 110 106 105 105 103 102 102 99 98 105 115 118 117 116 113 109 106 103 100 97 95 93 90 88 86 84 83 82 81 80 80 81 81 81 82 80 81 78 71 65
165 163 164 162 159 155 154 156 160 165 164 163 167 160 151 150 151 155 160 168 173 176 190 193 194 200 196 206 228 184 176 171 155 156 155 141 143 137 131 134 130 122 125 129 122 114 112 110 108 107 107 104 101 102 107 114 119 119 119 116 110 105 102 98 96 94 93 91 88 85 82 79 75 73 72 71 72 74 75 78 79 80 81 80 75
167 165 165 161 155 149 148 149 152 161 162 157 160 160 156 153 151 152 154 162 173 180 183 180 190 199 188 190 192 167 165 154 148 150 139 139 145 138 137 142 135 128 132 134 126 119 117 116 115 115 112 108 107 106 109 117 123 123 121 116 112 107 103 99 97 93 90 87 84 80 77 73 69 64 61 59 58 60 63 66 70 73 74 74 73
167 167 166 162 157 150 147 140 137 146 152 150 150 153 154 151 145 141 145 155 162 170 173 172 185 197 187 185 179 165 152 144 154 156 146 145 149 148 148 145 139 136 137 138 136 129 122 120 120 118 113 111 112 112 114 124 129 125 121 118 115 111 107 102 98 93 88 83 79 77 74 70 67 64 60 57 55 53 55 58 62 67 70 72 70
166 168 168 165 158 149 142 131 128 136 141 141 141 142 141 138 134 130 135 145 151 159 164 166 176 184 184 182 175 166 152 149 160 158 148 147 150 155 153 145 142 140 138 140 139 131 126 124 120 118 119 117 117 119 126 134 135 127 121 120 118 115 111 106 100 95 90 85 82 79 75 71 66 62 59 57 56 54 53 53 57 60 63 66 65
163 166 168 167 159 149 141 129 128 135 136 136 136 136 134 131 130 127 128 136 144 151 154 159 168 173 177 180 175 168 156 151 155 149 143 141 146 155 154 148 144 140 141 142 133 129 134 134 125 124 129 127 125 130 135 139 134 125 121 123 124 121 115 110 106 101 96 90 84 78 74 70 65 59 55 53 51 50 50 50 51 51 51 54 52
159 163 166 166 159 153 143 131 131 135 136 137 133 133 133 131 130 126 125 131 137 142 146 150 159 166 171 175 171 160 150 147 145 140 139 134 137 149 153 151 148 146 151 145 134 140 147 146 136 138 140 134 134 134 136 140 133 123 125 130 132 130 123 117 113 107 100 91 83 77 72 68 64 60 54 50 47 45 44 41 40 38 36 35 34
157 161 164 163 159 156 146 135 136 138 139 139 135 134 133 131 128 123 125 129 130 133 136 140 149 156 160 163 159 145 140 141 137 137 138 133 133 138 133 129 133 139 143 135 133 141 148 151 143 145 149 145 145 142 141 147 137 127 135 140 142 144 135 127 123 113 103 94 84 77 72 67 63 58 53 49 45 42 39 34 27 18 11 6 5
159 160 162 163 162 160 153 144 141 141 142 140 137 134 131 129 127 121 120 121 119 121 124 130 136 142 147 148 141 134 136 137 136 138 140 138 136 127 111 101 99 107 128 131 128 135 148 154 144 148 156 156 155 151 147 155 150 140 143 152 159 159 149 145 141 128 113 100 88 78 70 65 60 53 48 44 40 38 35 32 25 11 356 344 338
163 163 164 165 166 165 160 153 146 145 145 142 138 135 132 131 129 125 122 121 116 111 113 123 126 128 136 137 130 129 135 137 137 141 145 146 144 125 111 107 104 108 132 133 129 134 151 160 155 158 162 162 165 162 155 163 165 154 151 169 177 169 165 176 172 157 143 123 103 85 67 59 54 45 38 34 30 31 30 29 28 14 358 338 326
167 168 167 167 169 169 165 158 151 148 146 143 139 138 136 133 130 129 128 127 122 112 108 118 122 120 123 126 125 126 130 134 137 141 145 148 149 135 125 125 124 128 152 138 134 140 151 164 166 168 169 170 176 175 169 170 173 169 166 180 186 180 184 199 202 200 190 172 155 115 64 43 39 30 24 20 16 18 21 21 18 8 2 346 323
167 169 168 168 171 170 166 161 152 148 148 144 142 141 141 137 134 133 134 132 127 119 113 118 126 125 123 124 125 124 126 132 137 141 145 151 159 155 148 152 149 153 174 165 149 152 159 172 175 173 176 182 185 184 182 179 179 184 185 185 191 196 203 208 211 220 218 206 210 222 287 356 9 9 5 3 360 1 4 4 356 340 339 341 327
166 168 168 170 172 170 166 161 152 148 148 146 144 144 144 142 140 137 137 137 135 132 126 124 128 131 131 130 129 129 132 136 139 139 140 153 170 168 166 184 199 203 201 204 198 175 168 175 183 180 181 189 194 190 189 188 187 193 196 196 201 205 211 212 213 228 232 222 223 237 254 289 324 341 347 348 346 347 350 346 335 320 314 317 319
163 163 166 170 171 168 165 164 159 151 149 150 149 147 146 145 142 138 137 140 142 141 136 130 130 132 135 136 137 140 141 140 142 141 141 155 174 175 185 205 211 225 224 222 230 214 187 182 190 191 184 189 199 197 193 193 194 199 204 205 207 209 214 215 213 226 234 227 227 236 248 267 290 314 325 330 335 335 336 332 322 311 303 300 303
159 158 162 169 170 168 167 167 166 157 153 154 154 151 148 144 142 140 139 139 141 141 137 134 133 133 135 139 141 143 145 146 149 151 153 165 185 190 210 223 204 197 232 232 229 227 214 196 192 196 190 189 200 202 198 198 199 203 210 212 213 213 215 214 210 223 235 235 230 234 244 257 270 292 304 311 322 322 318 316 309 302 297 294 293
157 159 163 168 171 170 168 170 171 164 157 155 155 155 153 151 148 144 141 142 143 142 141 140 140 140 141 144 146 150 153 156 157 159 161 166 183 186 204 252 220 163 202 230 225 223 225 216 200 197 196 196 203 206 205 206 206 208 212 215 218 217 214 209 206 219 230 228 227 231 235 246 259 276 290 298 308 309 302 296 292 290 287 288 290
156 160 164 169 172 170 166 167 168 164 158 155 153 154 155 156 153 149 147 147 145 144 144 141 139 141 146 149 154 158 161 161 160 163 165 167 176 173 169 221 237 200 210 217 212 211 218 223 213 205 207 209 207 210 212 211 214 217 216 217 220 219 213 209 208 210 208 208 222 231 228 233 251 267 278 286 291 290 287 280 278 282 283 286 290
154 161 165 166 168 167 163 161 162 161 158 153 151 154 156 157 155 154 155 154 151 148 147 143 139 138 143 147 152 154 156 160 159 161 168 168 169 168 164 184 210 225 229 222 218 216 215 221 221 217 219 216 210 213 216 212 216 221 221 219 221 220 215 212 212 211 205 205 215 222 223 228 243 259 268 274 279 278 275 275 274 274 276 283 290
150 154 159 166 169 167 159 155 155 155 154 153 154 157 156 157 160 161 160 160 160 158 154 153 153 156 159 156 159 165 168 171 169 168 172 171 171 177 178 196 213 228 241 242 238 236 230 229 229 226 226 224 218 218 217 213 217 223 224 223 224 225 219 215 216 215 213 212 210 210 216 219 221 230 238 242 253 264 272 279 275 271 275 285 293
141 141 146 154 162 163 159 155 150 148 150 154 159 162 159 159 163 165 167 170 173 174 174 175 175 182 189 186 189 198 200 196 193 190 184 180 188 193 196 212 227 237 245 248 250 253 249 246 243 238 237 238 236 232 228 223 224 227 227 224 225 226 219 214 217 216 214 215 216 215 214 206 205 215 218 220 231 248 259 250 246 261 281 292 296
137 144 148 142 148 155 151 145 141 145 158 162 164 169 173 176 177 175 180 186 190 194 196 195 194 196 201 202 208 220 225 222 222 226 224 218 221 225 226 232 240 245 246 247 251 252 252 254 254 249 247 248 250 249 245 239 235 232 229 226 224 221 213 210 214 214 216 218 219 224 222 208 210 228 230 224 226 227 232 233 240 260 281 293 295
127 135 144 149 156 148 131 129 137 153 173 179 180 186 193 202 208 210 211 210 207 209 211 210 209 204 203 205 210 218 227 228 228 233 243 250 252 252 254 254 254 255 252 253 256 255 255 259 259 258 258 258 260 259 255 254 249 240 236 232 226 219 214 216 221 219 217 216 213 224 230 216 218 240 242 231 227 221 232 247 256 268 283 291 292
134 128 129 132 135 128 125 135 141 150 176 198 211 214 216 222 226 228 232 231 225 223 224 223 223 218 215 218 219 222 232 240 240 236 240 251 258 260 261 259 259 259 257 256 257 258 260 261 260 260 260 261 264 263 262 261 255 249 248 242 232 226 225 229 232 223 210 206 203 215 229 216 207 235 247 239 231 229 242 259 268 276 288 292 289
163 143 133 130 125 118 120 126 117 105 128 202 228 231 231 233 237 238 237 238 240 240 239 238 238 234 229 231 234 233 238 246 246 238 236 244 252 257 259 256 255 257 258 257 256 256 259 259 259 261 263 264 266 267 269 264 255 255 259 253 244 236 229 227 226 216 202 197 195 200 220 216 198 220 250 247 232 231 250 262 269 280 291 291 285
148 142 139 137 130 119 110 107 97 82 75 91 209 220 221 226 231 230 230 238 243 244 244 244 246 247 244 245 248 248 246 244 240 236 236 239 242 246 249 250 250 252 253 252 249 251 254 255 255 257 261 264 265 267 270 264 255 258 261 260 257 245 226 214 207 201 189 188 189 187 193 209 197 212 249 251 236 242 259 265 270 279 286 287 281
131 131 130 127 124 121 113 108 107 101 92 82 86 159 202 221 224 222 237 245 243 244 245 243 246 251 249 247 252 256 255 248 242 243 246 243 243 248 251 253 254 254 251 248 247 249 251 252 253 254 257 260 262 266 269 267 262 260 257 254 248 232 223 220 203 183 171 180 189 189 190 207 203 215 247 253 245 252 264 273 276 275 278 283 283
116 118 118 115 115 117 116 114 114 108 97 87 78 74 75 194 214 219 277 267 256 260 262 259 262 261 256 261 268 272 276 268 254 253 255 250 247 250 253 255 256 254 252 252 254 256 255 254 256 257 258 261 263 265 267 267 267 260 248 248 240 220 225 234 216 181 164 175 187 191 197 215 211 218 245 256 256 258 261 267 270 270 276 283 287
108 108 109 109 108 111 114 114 112 106 97 86 75 69 61 42 108 110 358 302 279 279 278 277 283 278 274 278 275 266 262 259 252 253 256 253 250 251 254 256 257 255 255 254 255 259 260 258 257 257 258 258 260 263 263 265 268 261 248 249 242 216 214 223 206 176 169 190 202 200 197 211 219 224 245 261 269 265 253 245 250 265 278 286 294
112 109 110 111 109 110 117 124 124 121 111 94 68 57 34 356 27 99 51 1 330 318 309 295 288 279 275 280 276 260 249 248 250 254 258 255 252 254 258 260 259 259 261 260 255 256 261 261 259 257 257 258 259 263 264 265 266 261 247 240 230 213 209 204 189 175 169 196 212 208 198 208 224 229 236 255 279 275 243 226 241 260 270 278 290